C/2017 K5 ( PanSTARRS )

Japanese version
Home page
Updated on June 14, 2021

---------------------------------------------------------------------

* Profile

Discovery Date May 27, 2017
Magnitude 22.0 mag
Discoverer Pan-STARRS 1 telescope (Haleakala)

* Pictures

* Orbital Elements

Epoch 2020 Mar. 12.0 TT = JDT 2458920.5
T 2020 Mar. 24.14901 TT                                 Rudenko
q   7.6787298            (2000.0)            P               Q
z  -0.0008263      Peri.  171.83434     +0.19343633     +0.16059073
 +/-0.0000035      Node   102.37357     -0.94682764     +0.28906963
e   1.0063447      Incl.   82.26366     -0.25709884     -0.94374221
From 90 observations 2017 May 27-2020 July 9, mean residual 0".8.

* Magnitudes Graph

        m1 = -8.7 + 5 log d + 25.0 log r

---------------------------------------------------------------------

The orbital elements are published on M.P.E.C. 2020-S188.
The magnitudes graphs are made with Comet for Windows.

---------------------------------------------------------------------

Copyright(C) Seiichi Yoshida (comet@aerith.net). All rights reserved.